ARIANE 5 R/B (44477 NORAD) Tracking and Keplerian Element Data

This shows tracking and keplerian element data for the satellite.

Feedback or suggestion? Click here.




ElementValue
Catalog44477
NameARIANE 5 R/B
Epoch Orbit19
Epoch Day227.27380177
Epoch Year2019
RAAN70.7638
Inclination4.5751
Eccentricity0.7279953
Argument of Perigee186.6657
Mean Anonmoly151.681
Mean Motion2.2991428
Decay Rate2.205E-05
L11 44477U 19049C 19227.27380177 .00002205 00000-0 28969-3 0 9991
L22 44477 4.5751 70.7638 7279953 186.6657 151.6810 2.29914280 191

Live tracking and technical data element details for ARIANE 5 R/B (NORAD 44477). ARIANE 5 R/B can be tracked NOW for your location showing map with azimuth and elevation plus other details from your city location.

Track the satellite on the map from your city or location and see movement details for azimuth, elevation, latitude, longitude, range, height, and movement on the map or in text.







IsCatalogInMostPopularTable: catalog: 44477, numindb: 2
Update: records affected: 1



GetName: 44477 ARIANE 5 R/B

Hit Count: updated at: Wed, 21 Aug 2019 11:07:26 GMT